Location: Newark
(45.4422°N, 16.2769°E)
Time: 01:05:10
(UTC+00:00)

Tiros 1 despin weight - Pass Details

Date: 22 December 2019
Orbit: 593 x 643 km, 48.2° (Epoch: 19 January)

Event Time Altitude Azimuth Distance (km) Brightness Sun altitude
Rises 22:16:51 0° 207° (SSW) 2,927 - -66.8°
Reaches altitude 10° 22:19:31 10° 194° (SSW) 2,017 - -66.9°
Maximum altitude 22:23:14 24° 140° (SE) 1,308 - -67.1°
Drops below altitude 10° 22:26:57 10° 87° (E) 2,006 - -67.3°
Sets 22:29:36 0° 73° (ENE) 2,908 - -67.5°
